Location: Bouchavesnes-Bergen
(49.9859°N, 2.9203°E)
Time: 23:00:06
(UTC+00:00)

Cosmos 1633 Rocket - Visible Passes

Search period start: 24 June 2021 00:00
Search period end: 04 July 2021 00:00
Orbit: 608 x 623 km, 82.5° (Epoch: 24 June)

Date Brightness Start Highest point End Pass type
(mag) Time Alt. Az. Time Alt. Az. Time Alt. Az.
24 Jun 5.7 02:51:19 10° SE 02:54:18 18° E 02:57:18 10° NE visible
27 Jun 6.2 02:04:54 10° E 02:05:24 10° E 02:05:54 10° ENE visible
28 Jun 5.7 02:18:23 10° SE 02:21:15 17° E 02:24:08 10° NE visible
29 Jun 5.0 02:33:26 10° SSE 02:37:11 28° E 02:40:57 10° NNE visible
30 Jun 4.1 02:48:59 10° SSE 02:53:12 46° E 02:57:27 10° NNE visible
02 Jul 5.6 01:45:28 10° ESE 01:48:12 16° E 01:50:56 10° NE visible
03 Jul 5.0 02:00:27 10° SE 02:04:07 26° E 02:07:49 10° NNE visible
